Location: Molalla
(45.1473°N, 122.5770°W)
Time: 20:17:42
(UTC-08:00)

Explorer 7 - All Passes

Search period start: 12 November 2019 00:00
Search period end: 22 November 2019 00:00
Orbit: 485 x 680 km, 50.3° (Epoch: 12 November)

Date Brightness Start Highest point End Pass type
(mag) Time Alt. Az. Time Alt. Az. Time Alt. Az.
12 Nov - 01:52:51 10° SSW 01:56:29 25° SE 01:59:57 10° E night (unlit)
12 Nov - 03:32:22 10° WSW 03:36:45 82° NNW 03:40:51 10° ENE visible
12 Nov - 05:13:39 10° WNW 05:17:37 40° N 05:21:21 10° ENE visible
12 Nov - 06:54:42 10° WNW 06:58:37 50° NNE 07:02:22 10° E daylight
12 Nov - 08:35:23 10° WNW 08:39:08 46° SW 08:42:44 10° SE daylight
13 Nov - 01:57:10 10° SSW 02:01:18 37° SE 02:05:14 10° ENE night (unlit)
13 Nov - 03:37:26 10° WSW 03:41:46 62° NNW 03:45:49 10° ENE visible
13 Nov - 05:18:49 10° WNW 05:22:44 39° N 05:26:27 10° ENE visible
13 Nov - 06:59:41 10° WNW 07:03:41 65° NNE 07:07:29 10° ESE daylight
13 Nov - 08:40:33 10° W 08:43:58 29° SW 08:47:16 10° SSE daylight
14 Nov - 00:24:30 10° SSE 00:26:15 12° SE 00:28:00 10° ESE night (unlit)
14 Nov - 02:01:48 10° SW 02:06:12 56° SSE 02:10:20 10° ENE night (unlit)
14 Nov - 03:42:35 10° W 03:46:49 50° NNW 03:50:48 10° ENE visible
14 Nov - 05:23:55 10° WNW 05:27:52 40° N 05:31:36 10° ENE visible
14 Nov - 07:04:40 10° WNW 07:08:41 88° NNE 07:12:31 10° ESE daylight
14 Nov - 08:45:58 10° W 08:48:43 19° SW 08:51:25 10° S daylight
15 Nov - 00:27:43 10° S 00:30:59 19° SE 00:34:07 10° E night (unlit)
15 Nov - 02:06:37 10° WSW 02:11:08 81° SSE 02:15:21 10° ENE night (unlit)
15 Nov - 03:47:46 10° W 03:51:55 43° N 03:55:49 10° ENE visible
15 Nov - 05:28:59 10° WNW 05:32:59 45° N 05:36:46 10° E visible
15 Nov - 07:09:40 10° WNW 07:13:38 63° SSW 07:17:24 10° SE daylight
15 Nov - 08:52:08 10° WSW 08:53:25 11° SW 08:54:42 10° SSW daylight
16 Nov - 00:31:47 10° SSW 00:35:45 29° SE 00:39:34 10° E night (unlit)
16 Nov - 02:11:36 10° WSW 02:16:06 76° NNW 02:20:20 10° ENE night (unlit)
16 Nov - 03:52:57 10° WNW 03:57:02 40° N 04:00:53 10° ENE visible
16 Nov - 05:33:59 10° WNW 05:38:04 55° NNE 05:41:55 10° E visible
16 Nov - 07:14:45 10° WNW 07:18:31 41° SW 07:22:06 10° SE daylight
17 Nov - 00:36:13 10° SW 00:40:36 44° SE 00:44:45 10° ENE night (unlit)
17 Nov - 02:16:42 10° W 02:21:08 59° NNW 02:25:18 10° ENE night (unlit)
17 Nov - 03:58:05 10° WNW 04:02:10 40° N 04:06:00 10° ENE visible
17 Nov - 05:38:58 10° WNW 05:43:06 72° NNE 05:47:00 10° ESE visible
17 Nov - 07:19:58 10° W 07:23:19 26° SW 07:26:32 10° SSE daylight
17 Nov - 23:02:52 10° SSE 23:05:28 15° SE 23:08:01 10° E night (unlit)
18 Nov - 00:40:54 10° SW 00:45:29 64° SSE 00:49:49 10° ENE night (unlit)
18 Nov - 02:21:51 10° W 02:26:13 48° NNW 02:30:18 10° ENE night (unlit)
18 Nov - 04:03:11 10° WNW 04:07:17 42° N 04:11:09 10° E visible
18 Nov - 05:43:57 10° WNW 05:48:06 83° SSW 05:51:59 10° ESE visible
18 Nov - 07:25:30 10° W 07:28:03 17° SW 07:30:32 10° S daylight
18 Nov - 23:06:31 10° S 23:10:12 23° SE 23:13:46 10° E night (unlit)
19 Nov - 00:45:47 10° WSW 00:50:26 89° SSE 00:54:49 10° ENE night (unlit)
19 Nov - 02:27:02 10° W 02:31:18 43° N 02:35:20 10° ENE night (unlit)
19 Nov - 04:08:13 10° WNW 04:12:24 49° NNE 04:16:19 10° E visible
19 Nov - 05:48:58 10° WNW 05:53:01 56° SSW 05:56:49 10° SE visible
19 Nov - 23:10:44 10° SSW 23:15:00 34° SE 23:19:05 10° ENE night (unlit)
20 Nov - 00:50:48 10° WSW 00:55:26 70° NNW 00:59:47 10° ENE night (unlit)
20 Nov - 02:32:12 10° WNW 02:36:25 41° N 02:40:24 10° ENE night (unlit)
20 Nov - 04:13:13 10° WNW 04:17:28 60° NNE 04:21:26 10° E visible
20 Nov - 05:54:04 10° WNW 05:57:52 36° SW 06:01:27 10° SSE visible
20 Nov - 21:38:42 10° SE 21:39:59 11° SE 21:41:15 10° ESE night (unlit)
20 Nov - 23:15:16 10° SW 23:19:51 50° SE 23:24:13 10° ENE night (unlit)
21 Nov - 00:55:55 10° W 01:00:28 56° NNW 01:04:46 10° ENE night (unlit)
21 Nov - 02:37:19 10° WNW 02:41:33 41° N 02:45:32 10° ENE night (unlit)
21 Nov - 04:18:12 10° WNW 04:22:29 80° NNE 04:26:30 10° ESE visible
21 Nov - 05:59:21 10° W 06:02:38 23° SW 06:05:46 10° S visible
21 Nov - 21:41:29 10° S 21:44:40 18° SE 21:47:46 10° E night (unlit)
21 Nov - 23:20:01 10° SW 23:24:45 72° SSE 23:29:14 10° ENE night (unlit)
